Wetterdaten: Mittwoch, 04.05.2011
Datum Zeit Temp. Auen Feucht Auen Luftdruck Regen Richtung Richtung Windben
04.05.2011 00:00 3,3 C 86 % 1088,1 hPa 0,0 mm SW 225 1,1 km/h (1 Bft)
04.05.2011 00:05 3,3 C 86 % 1088,0 hPa 0,0 mm SW 225 1,1 km/h (1 Bft)
04.05.2011 00:10 3,3 C 86 % 1088,1 hPa 0,0 mm N 0 0,0 km/h (0 Bft)
04.05.2011 00:15 3,3 C 87 % 1088,2 hPa 0,0 mm N 0 0,0 km/h (0 Bft)
04.05.2011 00:20 3,3 C 87 % 1088,2 hPa 0,0 mm SW 225 1,1 km/h (1 Bft)
04.05.2011 00:25 3,4 C 87 % 1088,0 hPa 0,0 mm W-SW 242 1,1 km/h (1 Bft)
04.05.2011 00:30 3,4 C 87 % 1088,0 hPa 0,0 mm W-SW 258 1,1 km/h (1 Bft)
04.05.2011 00:35 3,4 C 87 % 1088,1 hPa 0,0 mm W 270 2,5 km/h (1 Bft)
04.05.2011 00:40 3,4 C 87 % 1088,0 hPa 0,0 mm W 270 2,5 km/h (1 Bft)
04.05.2011 00:45 3,4 C 88 % 1088,1 hPa 0,0 mm W 270 1,1 km/h (1 Bft)
04.05.2011 00:50 3,4 C 88 % 1087,9 hPa 0,0 mm W 270 1,1 km/h (1 Bft)
04.05.2011 00:55 3,4 C 88 % 1088,0 hPa 0,0 mm W 270 1,1 km/h (1 Bft)
04.05.2011 01:00 3,4 C 88 % 1088,0 hPa 0,0 mm S 190 2,5 km/h (1 Bft)
04.05.2011 01:05 3,4 C 88 % 1088,1 hPa 0,0 mm S 185 2,5 km/h (1 Bft)
04.05.2011 01:10 3,3 C 87 % 1088,0 hPa 0,0 mm S 181 2,5 km/h (1 Bft)
04.05.2011 01:15 3,3 C 87 % 1088,3 hPa 0,0 mm S 181 1,1 km/h (1 Bft)
04.05.2011 01:20 3,2 C 87 % 1088,3 hPa 0,0 mm S 181 1,1 km/h (1 Bft)
04.05.2011 01:25 3,2 C 87 % 1088,1 hPa 0,0 mm S 181 1,1 km/h (1 Bft)
04.05.2011 01:30 3,2 C 87 % 1088,2 hPa 0,0 mm S 181 1,1 km/h (1 Bft)
04.05.2011 01:35 3,1 C 87 % 1088,0 hPa 0,0 mm W 260 2,5 km/h (1 Bft)
04.05.2011 01:40 3,0 C 87 % 1088,1 hPa 0,0 mm W-SW 258 2,5 km/h (1 Bft)
04.05.2011 01:45 3,0 C 87 % 1088,0 hPa 0,0 mm S 182 3,6 km/h (1 Bft)
04.05.2011 01:50 2,9 C 87 % 1087,8 hPa 0,0 mm SO 143 3,6 km/h (1 Bft)
04.05.2011 01:55 2,9 C 86 % 1088,1 hPa 0,0 mm S-SO 155 5,0 km/h (1 Bft)
04.05.2011 02:00 2,9 C 86 % 1088,2 hPa 0,0 mm S-SW 200 5,0 km/h (1 Bft)
04.05.2011 02:05 2,9 C 86 % 1088,1 hPa 0,0 mm SW 225 1,1 km/h (1 Bft)
04.05.2011 02:10 2,9 C 87 % 1088,2 hPa 0,0 mm SW 225 1,1 km/h (1 Bft)
04.05.2011 02:15 2,9 C 86 % 1088,0 hPa 0,0 mm SW 225 1,1 km/h (1 Bft)
04.05.2011 02:20 2,8 C 86 % 1088,2 hPa 0,0 mm SW 225 1,1 km/h (1 Bft)
04.05.2011 02:25 2,8 C 87 % 1087,8 hPa 0,0 mm SW 225 1,1 km/h (1 Bft)
04.05.2011 02:30 2,7 C 87 % 1087,9 hPa 0,0 mm S-SW 201 1,1 km/h (1 Bft)
04.05.2011 02:35 2,6 C 87 % 1087,8 hPa 0,0 mm S 181 1,1 km/h (1 Bft)
04.05.2011 02:40 2,5 C 88 % 1087,7 hPa 0,0 mm S 181 1,1 km/h (1 Bft)
04.05.2011 02:45 2,5 C 88 % 1087,8 hPa 0,0 mm N 0 0,0 km/h (0 Bft)
04.05.2011 02:50 2,4 C 88 % 1087,8 hPa 0,0 mm N 0 0,0 km/h (0 Bft)
04.05.2011 02:55 2,2 C 88 % 1087,7 hPa 0,0 mm S 181 2,5 km/h (1 Bft)
04.05.2011 03:00 2,2 C 88 % 1087,8 hPa 0,0 mm S 181 2,5 km/h (1 Bft)
04.05.2011 03:05 2,1 C 88 % 1087,8 hPa 0,0 mm S 181 2,5 km/h (1 Bft)
04.05.2011 03:10 1,8 C 88 % 1087,8 hPa 0,0 mm S 187 1,1 km/h (1 Bft)
04.05.2011 03:15 1,6 C 88 % 1088,0 hPa 0,0 mm S-SW 209 1,1 km/h (1 Bft)
04.05.2011 03:20 1,5 C 88 % 1088,0 hPa 0,0 mm W-SW 244 2,5 km/h (1 Bft)
04.05.2011 03:25 1,7 C 89 % 1087,7 hPa 0,0 mm W 266 2,5 km/h (1 Bft)
04.05.2011 03:30 1,7 C 89 % 1087,6 hPa 0,0 mm W 270 2,5 km/h (1 Bft)
04.05.2011 03:35 1,6 C 89 % 1087,8 hPa 0,0 mm W 270 1,1 km/h (1 Bft)
04.05.2011 03:40 1,6 C 89 % 1087,9 hPa 0,0 mm W 270 1,1 km/h (1 Bft)
04.05.2011 03:45 1,6 C 90 % 1088,0 hPa 0,0 mm W 270 1,1 km/h (1 Bft)
04.05.2011 03:50 1,6 C 90 % 1087,9 hPa 0,0 mm W 270 1,1 km/h (1 Bft)
04.05.2011 03:55 1,7 C 90 % 1088,1 hPa 0,0 mm W-SW 249 2,5 km/h (1 Bft)
04.05.2011 04:00 1,7 C 90 % 1087,9 hPa 0,0 mm SW 236 2,5 km/h (1 Bft)
04.05.2011 04:05 1,8 C 90 % 1087,9 hPa 0,0 mm SW 225 2,5 km/h (1 Bft)
04.05.2011 04:10 1,8 C 91 % 1088,0 hPa 0,0 mm SW 225 2,5 km/h (1 Bft)
04.05.2011 04:15 1,8 C 91 % 1087,9 hPa 0,0 mm SW 225 2,5 km/h (1 Bft)
04.05.2011 04:20 1,9 C 91 % 1087,9 hPa 0,0 mm SW 225 1,1 km/h (1 Bft)
04.05.2011 04:25 1,8 C 91 % 1087,8 hPa 0,0 mm SW 234 2,5 km/h (1 Bft)
04.05.2011 04:30 1,8 C 91 % 1088,0 hPa 0,0 mm W-SW 257 2,5 km/h (1 Bft)
04.05.2011 04:35 1,9 C 91 % 1087,7 hPa 0,0 mm W 270 1,1 km/h (1 Bft)
04.05.2011 04:40 1,9 C 91 % 1088,1 hPa 0,0 mm W 270 1,1 km/h (1 Bft)
04.05.2011 04:45 1,9 C 91 % 1087,9 hPa 0,0 mm W-SW 255 2,5 km/h (1 Bft)
04.05.2011 04:50 1,9 C 91 % 1088,0 hPa 0,0 mm W-SW 237 3,6 km/h (1 Bft)
04.05.2011 04:55 1,9 C 91 % 1088,0 hPa 0,0 mm SW 225 3,6 km/h (1 Bft)
04.05.2011 05:00 2,0 C 91 % 1088,0 hPa 0,0 mm SW 225 2,5 km/h (1 Bft)
04.05.2011 05:05 2,0 C 91 % 1088,0 hPa 0,0 mm SW 225 1,1 km/h (1 Bft)
04.05.2011 05:10 1,9 C 91 % 1088,1 hPa 0,0 mm W-SW 237 1,1 km/h (1 Bft)
04.05.2011 05:15 1,8 C 91 % 1088,2 hPa 0,0 mm W-SW 256 1,1 km/h (1 Bft)
04.05.2011 05:20 2,0 C 91 % 1088,1 hPa 0,0 mm W 270 1,1 km/h (1 Bft)
04.05.2011 05:25 2,0 C 91 % 1088,2 hPa 0,0 mm N 0 0,0 km/h (0 Bft)
04.05.2011 05:30 1,9 C 91 % 1088,3 hPa 0,0 mm W 270 1,1 km/h (1 Bft)
04.05.2011 05:35 1,9 C 91 % 1088,2 hPa 0,0 mm W 270 1,1 km/h (1 Bft)
04.05.2011 05:40 1,9 C 91 % 1088,3 hPa 0,0 mm W 270 1,1 km/h (1 Bft)
04.05.2011 05:45 1,9 C 91 % 1088,1 hPa 0,0 mm W 270 1,1 km/h (1 Bft)
04.05.2011 05:50 1,9 C 91 % 1088,2 hPa 0,0 mm W 270 1,1 km/h (1 Bft)
04.05.2011 05:55 1,8 C 91 % 1088,3 hPa 0,0 mm W 270 1,1 km/h (1 Bft)
04.05.2011 06:00 1,7 C 91 % 1088,5 hPa 0,0 mm N 0 0,0 km/h (0 Bft)
04.05.2011 06:05 1,7 C 91 % 1088,6 hPa 0,0 mm N 0 0,0 km/h (0 Bft)
04.05.2011 06:10 1,6 C 91 % 1088,7 hPa 0,0 mm N 0 0,0 km/h (0 Bft)
04.05.2011 06:15 1,7 C 91 % 1088,7 hPa 0,0 mm W 270 1,1 km/h (1 Bft)
04.05.2011 06:20 1,6 C 91 % 1088,7 hPa 0,0 mm W 270 1,1 km/h (1 Bft)
04.05.2011 06:25 1,8 C 92 % 1088,9 hPa 0,0 mm W 270 1,1 km/h (1 Bft)
04.05.2011 06:30 1,9 C 92 % 1088,6 hPa 0,0 mm W 270 1,1 km/h (1 Bft)
04.05.2011 06:35 2,1 C 92 % 1088,7 hPa 0,0 mm W 270 1,1 km/h (1 Bft)
04.05.2011 06:40 2,2 C 92 % 1088,9 hPa 0,0 mm W 270 1,1 km/h (1 Bft)
04.05.2011 06:45 2,4 C 92 % 1088,8 hPa 0,0 mm W 270 1,1 km/h (1 Bft)
04.05.2011 06:50 2,5 C 93 % 1088,7 hPa 0,0 mm W 270 2,5 km/h (1 Bft)
04.05.2011 06:55 2,6 C 92 % 1088,6 hPa 0,0 mm SW 227 5,0 km/h (1 Bft)
04.05.2011 07:00 2,7 C 92 % 1088,8 hPa 0,0 mm S-SO 161 5,0 km/h (1 Bft)
04.05.2011 07:05 2,8 C 92 % 1088,9 hPa 0,0 mm O-SO 112 3,6 km/h (1 Bft)
04.05.2011 07:10 3,0 C 91 % 1088,8 hPa 0,0 mm O 80 5,0 km/h (1 Bft)
04.05.2011 07:15 3,1 C 91 % 1088,8 hPa 0,0 mm NO 36 5,0 km/h (1 Bft)
04.05.2011 07:20 3,1 C 90 % 1088,6 hPa 0,0 mm N 6 5,0 km/h (1 Bft)
04.05.2011 07:25 3,1 C 90 % 1088,8 hPa 0,0 mm NO 56 5,0 km/h (1 Bft)
04.05.2011 07:30 3,2 C 90 % 1088,9 hPa 0,0 mm S-SO 148 3,6 km/h (1 Bft)
04.05.2011 07:35 3,6 C 90 % 1088,7 hPa 0,0 mm SO 130 3,6 km/h (1 Bft)
04.05.2011 07:40 3,7 C 89 % 1088,7 hPa 0,0 mm SO 140 5,0 km/h (1 Bft)
04.05.2011 07:45 3,9 C 89 % 1088,4 hPa 0,0 mm SO 143 5,0 km/h (1 Bft)
04.05.2011 07:50 4,0 C 88 % 1088,4 hPa 0,0 mm S-SO 150 5,0 km/h (1 Bft)
04.05.2011 07:55 4,0 C 88 % 1088,6 hPa 0,0 mm S-SO 156 5,0 km/h (1 Bft)
04.05.2011 08:00 4,1 C 88 % 1088,6 hPa 0,0 mm S-SO 150 5,0 km/h (1 Bft)
04.05.2011 08:05 4,2 C 88 % 1088,5 hPa 0,0 mm SO 135 3,6 km/h (1 Bft)
04.05.2011 08:10 5,1 C 86 % 1088,2 hPa 0,0 mm O-SO 121 3,6 km/h (1 Bft)
04.05.2011 08:15 5,7 C 86 % 1088,0 hPa 0,0 mm S-SO 157 3,6 km/h (1 Bft)
04.05.2011 08:20 6,4 C 85 % 1088,1 hPa 0,0 mm S-SW 196 2,5 km/h (1 Bft)
04.05.2011 08:25 6,5 C 79 % 1087,9 hPa 0,0 mm S 189 6,1 km/h (2 Bft)
04.05.2011 08:30 6,4 C 79 % 1087,9 hPa 0,0 mm S 181 6,1 km/h (2 Bft)
04.05.2011 08:35 6,7 C 79 % 1087,9 hPa 0,0 mm S 186 5,0 km/h (1 Bft)
04.05.2011 08:40 6,7 C 79 % 1088,0 hPa 0,0 mm S 183 5,0 km/h (1 Bft)
04.05.2011 08:45 7,2 C 77 % 1087,9 hPa 0,0 mm S 177 5,0 km/h (1 Bft)
04.05.2011 08:50 7,4 C 77 % 1087,8 hPa 0,0 mm S-SO 167 5,0 km/h (1 Bft)
04.05.2011 08:55 7,4 C 77 % 1087,8 hPa 0,0 mm S-SO 166 6,1 km/h (2 Bft)
04.05.2011 09:00 7,5 C 77 % 1087,8 hPa 0,0 mm S-SW 195 6,1 km/h (2 Bft)
04.05.2011 09:05 7,5 C 75 % 1087,6 hPa 0,0 mm S 189 6,1 km/h (2 Bft)
04.05.2011 09:10 8,3 C 75 % 1087,7 hPa 0,0 mm S 189 6,1 km/h (2 Bft)
04.05.2011 09:15 8,5 C 73 % 1087,4 hPa 0,0 mm SW 221 6,1 km/h (2 Bft)
04.05.2011 09:20 8,3 C 71 % 1087,5 hPa 0,0 mm W-SW 249 6,1 km/h (2 Bft)
04.05.2011 09:25 8,6 C 72 % 1087,6 hPa 0,0 mm W 259 6,1 km/h (2 Bft)
04.05.2011 09:30 8,9 C 72 % 1087,5 hPa 0,0 mm W-SW 256 6,1 km/h (2 Bft)
04.05.2011 09:35 9,1 C 70 % 1087,4 hPa 0,0 mm W 260 12,2 km/h (2 Bft)
04.05.2011 09:40 8,7 C 70 % 1087,7 hPa 0,0 mm W 263 12,2 km/h (2 Bft)
04.05.2011 09:45 8,5 C 70 % 1087,7 hPa 0,0 mm W-SW 253 12,2 km/h (2 Bft)
04.05.2011 09:50 8,5 C 70 % 1087,8 hPa 0,0 mm W-SW 242 8,6 km/h (2 Bft)
04.05.2011 09:55 8,3 C 67 % 1088,0 hPa 0,0 mm W-SW 250 9,7 km/h (2 Bft)
04.05.2011 10:00 8,2 C 68 % 1088,0 hPa 0,0 mm W 262 9,7 km/h (2 Bft)
04.05.2011 10:05 8,1 C 68 % 1088,1 hPa 0,0 mm W-SW 255 7,2 km/h (2 Bft)
04.05.2011 10:10 8,2 C 68 % 1088,1 hPa 0,0 mm W-SW 237 7,2 km/h (2 Bft)
04.05.2011 10:15 8,8 C 67 % 1087,7 hPa 0,0 mm W-SW 249 7,2 km/h (2 Bft)
04.05.2011 10:20 9,2 C 64 % 1087,5 hPa 0,0 mm W 265 7,2 km/h (2 Bft)
04.05.2011 10:25 9,3 C 65 % 1087,6 hPa 0,0 mm W 268 7,2 km/h (2 Bft)
04.05.2011 10:30 9,1 C 64 % 1087,6 hPa 0,0 mm W 267 9,7 km/h (2 Bft)
04.05.2011 10:35 8,8 C 63 % 1087,6 hPa 0,0 mm W 269 9,7 km/h (2 Bft)
04.05.2011 10:40 8,6 C 63 % 1087,9 hPa 0,0 mm W 262 9,7 km/h (2 Bft)
04.05.2011 10:45 8,6 C 65 % 1088,0 hPa 0,0 mm W-SW 256 7,2 km/h (2 Bft)
04.05.2011 10:50 8,7 C 64 % 1088,1 hPa 0,0 mm W-SW 255 7,2 km/h (2 Bft)
04.05.2011 10:55 8,6 C 64 % 1088,1 hPa 0,0 mm SW 218 6,1 km/h (2 Bft)
04.05.2011 11:00 8,3 C 64 % 1088,3 hPa 0,0 mm S 173 7,2 km/h (2 Bft)
04.05.2011 11:05 8,2 C 64 % 1088,4 hPa 0,0 mm S 181 7,2 km/h (2 Bft)
04.05.2011 11:10 7,7 C 67 % 1088,5 hPa 0,0 mm S 179 7,2 km/h (2 Bft)
04.05.2011 11:15 7,6 C 67 % 1088,6 hPa 0,0 mm S 170 5,0 km/h (1 Bft)
04.05.2011 11:20 7,6 C 65 % 1088,7 hPa 0,0 mm S-SO 159 6,1 km/h (2 Bft)
04.05.2011 11:25 7,8 C 66 % 1088,5 hPa 0,0 mm S 179 6,1 km/h (2 Bft)
04.05.2011 11:30 8,3 C 65 % 1088,4 hPa 0,0 mm W-SW 256 7,2 km/h (2 Bft)
04.05.2011 11:35 8,6 C 66 % 1088,5 hPa 0,0 mm W 264 7,2 km/h (2 Bft)
04.05.2011 11:40 8,8 C 65 % 1088,5 hPa 0,0 mm W-SW 244 7,2 km/h (2 Bft)
04.05.2011 11:45 9,2 C 64 % 1088,3 hPa 0,0 mm W-SW 237 12,2 km/h (2 Bft)
04.05.2011 11:50 9,5 C 60 % 1088,3 hPa 0,0 mm W-SW 238 12,2 km/h (2 Bft)
04.05.2011 11:55 9,7 C 62 % 1088,1 hPa 0,0 mm W-SW 243 8,6 km/h (2 Bft)
04.05.2011 12:00 9,7 C 60 % 1088,3 hPa 0,0 mm W 271 9,7 km/h (2 Bft)
04.05.2011 12:05 9,6 C 60 % 1088,2 hPa 0,0 mm N-NW 328 11,2 km/h (2 Bft)
04.05.2011 12:10 9,3 C 61 % 1088,3 hPa 0,0 mm N-NW 345 11,2 km/h (2 Bft)
04.05.2011 12:15 9,7 C 60 % 1088,2 hPa 0,0 mm W 279 11,2 km/h (2 Bft)
04.05.2011 12:20 10,0 C 61 % 1088,3 hPa 0,0 mm SW 236 9,7 km/h (2 Bft)
04.05.2011 12:25 10,0 C 60 % 1088,1 hPa 0,0 mm W-SW 244 9,7 km/h (2 Bft)
04.05.2011 12:30 10,1 C 59 % 1088,1 hPa 0,0 mm W-SW 245 9,7 km/h (2 Bft)
04.05.2011 12:35 10,3 C 59 % 1088,0 hPa 0,0 mm W-SW 254 8,6 km/h (2 Bft)
04.05.2011 12:40 10,4 C 57 % 1088,0 hPa 0,0 mm W 266 12,2 km/h (2 Bft)
04.05.2011 12:45 10,3 C 55 % 1087,9 hPa 0,0 mm W 270 12,2 km/h (2 Bft)
04.05.2011 12:50 10,2 C 57 % 1088,0 hPa 0,0 mm W 270 11,2 km/h (2 Bft)
04.05.2011 12:55 10,1 C 56 % 1088,0 hPa 0,0 mm W 263 11,2 km/h (2 Bft)
04.05.2011 13:00 9,9 C 56 % 1088,2 hPa 0,0 mm W-SW 254 13,3 km/h (3 Bft)
04.05.2011 13:05 9,8 C 56 % 1088,1 hPa 0,0 mm W 259 13,3 km/h (3 Bft)
04.05.2011 13:10 9,2 C 57 % 1088,4 hPa 0,0 mm W 270 8,6 km/h (2 Bft)
04.05.2011 13:15 9,1 C 58 % 1088,3 hPa 0,0 mm W 261 8,6 km/h (2 Bft)
04.05.2011 13:20 9,1 C 58 % 1088,4 hPa 0,0 mm W 261 9,7 km/h (2 Bft)
04.05.2011 13:25 9,3 C 59 % 1088,2 hPa 0,0 mm W 265 9,7 km/h (2 Bft)
04.05.2011 13:30 9,3 C 58 % 1088,3 hPa 0,0 mm W-SW 257 7,2 km/h (2 Bft)
04.05.2011 13:35 9,2 C 58 % 1088,2 hPa 0,0 mm W 264 8,6 km/h (2 Bft)
04.05.2011 13:40 9,3 C 58 % 1088,3 hPa 0,0 mm W 268 8,6 km/h (2 Bft)
04.05.2011 13:45 9,5 C 58 % 1088,4 hPa 0,0 mm W 266 13,3 km/h (3 Bft)
04.05.2011 13:50 9,7 C 58 % 1088,1 hPa 0,0 mm W 265 13,3 km/h (3 Bft)
04.05.2011 13:55 9,9 C 58 % 1088,2 hPa 0,0 mm W 268 7,2 km/h (2 Bft)
04.05.2011 14:00 10,0 C 57 % 1088,3 hPa 0,0 mm W 270 11,2 km/h (2 Bft)
04.05.2011 14:05 9,9 C 56 % 1088,3 hPa 0,0 mm W 270 11,2 km/h (2 Bft)
04.05.2011 14:10 9,8 C 55 % 1088,2 hPa 0,0 mm W 268 11,2 km/h (2 Bft)
04.05.2011 14:15 9,9 C 55 % 1088,4 hPa 0,0 mm W 261 11,2 km/h (2 Bft)
04.05.2011 14:20 10,0 C 55 % 1088,2 hPa 0,0 mm W 262 8,6 km/h (2 Bft)
04.05.2011 14:25 10,3 C 54 % 1088,1 hPa 0,0 mm W 262 11,2 km/h (2 Bft)
04.05.2011 14:30 10,2 C 53 % 1088,2 hPa 0,0 mm W 263 11,2 km/h (2 Bft)
04.05.2011 14:35 10,2 C 53 % 1088,2 hPa 0,0 mm W 268 9,7 km/h (2 Bft)
04.05.2011 14:40 10,1 C 53 % 1088,2 hPa 0,0 mm W 265 9,7 km/h (2 Bft)
04.05.2011 14:45 10,1 C 54 % 1088,4 hPa 0,0 mm W 264 8,6 km/h (2 Bft)
04.05.2011 14:50 10,3 C 55 % 1088,3 hPa 0,0 mm W 267 8,6 km/h (2 Bft)
04.05.2011 14:55 10,5 C 52 % 1088,1 hPa 0,0 mm W 270 8,6 km/h (2 Bft)
04.05.2011 15:00 10,9 C 53 % 1088,0 hPa 0,0 mm W 270 11,2 km/h (2 Bft)
04.05.2011 15:05 10,9 C 53 % 1088,0 hPa 0,0 mm W 270 11,2 km/h (2 Bft)
04.05.2011 15:10 11,1 C 51 % 1087,8 hPa 0,0 mm W 266 8,6 km/h (2 Bft)
04.05.2011 15:15 11,0 C 49 % 1087,9 hPa 0,0 mm W 269 8,6 km/h (2 Bft)
04.05.2011 15:20 11,1 C 48 % 1087,6 hPa 0,0 mm W 263 9,7 km/h (2 Bft)
04.05.2011 15:25 11,5 C 47 % 1087,7 hPa 0,0 mm W 262 11,2 km/h (2 Bft)
04.05.2011 15:30 11,8 C 47 % 1087,8 hPa 0,0 mm W 268 14,8 km/h (3 Bft)
04.05.2011 15:35 12,3 C 46 % 1087,4 hPa 0,0 mm W 264 14,8 km/h (3 Bft)
04.05.2011 15:40 12,4 C 46 % 1087,4 hPa 0,0 mm W 268 15,8 km/h (3 Bft)
04.05.2011 15:45 12,3 C 45 % 1087,3 hPa 0,0 mm W 267 15,8 km/h (3 Bft)
04.05.2011 15:50 12,3 C 47 % 1087,4 hPa 0,0 mm W-SW 253 13,3 km/h (3 Bft)
04.05.2011 15:55 11,9 C 46 % 1087,5 hPa 0,0 mm W-SW 250 15,8 km/h (3 Bft)
04.05.2011 16:00 11,5 C 46 % 1087,7 hPa 0,0 mm W-SW 256 15,8 km/h (3 Bft)
04.05.2011 16:05 11,5 C 46 % 1087,8 hPa 0,0 mm W 266 13,3 km/h (3 Bft)
04.05.2011 16:10 11,8 C 46 % 1087,7 hPa 0,0 mm W 270 8,6 km/h (2 Bft)
04.05.2011 16:15 11,9 C 45 % 1087,6 hPa 0,0 mm W 268 9,7 km/h (2 Bft)
04.05.2011 16:20 12,0 C 45 % 1087,6 hPa 0,0 mm W 266 9,7 km/h (2 Bft)
04.05.2011 16:25 12,2 C 43 % 1087,5 hPa 0,0 mm W 265 12,2 km/h (2 Bft)
04.05.2011 16:30 12,2 C 42 % 1087,6 hPa 0,0 mm W 262 17,3 km/h (3 Bft)
04.05.2011 16:35 12,2 C 43 % 1087,6 hPa 0,0 mm W 261 17,3 km/h (3 Bft)
04.05.2011 16:40 12,0 C 42 % 1087,6 hPa 0,0 mm W 264 14,8 km/h (3 Bft)
04.05.2011 16:45 12,0 C 42 % 1087,5 hPa 0,0 mm W 259 11,2 km/h (2 Bft)
04.05.2011 16:50 12,1 C 42 % 1087,4 hPa 0,0 mm W 259 12,2 km/h (2 Bft)
04.05.2011 16:55 11,9 C 41 % 1087,7 hPa 0,0 mm W 261 12,2 km/h (2 Bft)
04.05.2011 17:00 11,7 C 42 % 1087,6 hPa 0,0 mm W 269 15,8 km/h (3 Bft)
04.05.2011 17:05 11,7 C 42 % 1087,6 hPa 0,0 mm W 275 15,8 km/h (3 Bft)
04.05.2011 17:10 12,1 C 43 % 1087,6 hPa 0,0 mm W 269 15,8 km/h (3 Bft)
04.05.2011 17:15 11,9 C 42 % 1087,7 hPa 0,0 mm W 274 15,8 km/h (3 Bft)
04.05.2011 17:20 12,1 C 41 % 1087,6 hPa 0,0 mm W-NW 284 11,2 km/h (2 Bft)
04.05.2011 17:25 12,3 C 41 % 1087,5 hPa 0,0 mm W-SW 257 17,3 km/h (3 Bft)
04.05.2011 17:30 12,3 C 39 % 1087,6 hPa 0,0 mm W-SW 258 17,3 km/h (3 Bft)
04.05.2011 17:35 12,3 C 38 % 1087,9 hPa 0,0 mm W 265 12,2 km/h (2 Bft)
04.05.2011 17:40 12,2 C 39 % 1087,9 hPa 0,0 mm W 262 14,8 km/h (3 Bft)
04.05.2011 17:45 12,1 C 40 % 1087,9 hPa 0,0 mm W-SW 255 14,8 km/h (3 Bft)
04.05.2011 17:50 12,2 C 40 % 1088,0 hPa 0,0 mm W-SW 245 13,3 km/h (3 Bft)
04.05.2011 17:55 12,2 C 38 % 1088,0 hPa 0,0 mm SW 232 9,7 km/h (2 Bft)
04.05.2011 18:00 12,0 C 39 % 1088,2 hPa 0,0 mm W 262 9,7 km/h (2 Bft)
04.05.2011 18:05 12,0 C 39 % 1088,1 hPa 0,0 mm W 274 9,7 km/h (2 Bft)
04.05.2011 18:10 11,9 C 39 % 1087,9 hPa 0,0 mm W 268 9,7 km/h (2 Bft)
04.05.2011 18:15 11,8 C 39 % 1088,1 hPa 0,0 mm W 264 9,7 km/h (2 Bft)
04.05.2011 18:20 11,6 C 39 % 1088,1 hPa 0,0 mm W 264 9,7 km/h (2 Bft)
04.05.2011 18:25 11,5 C 40 % 1088,1 hPa 0,0 mm W 260 9,7 km/h (2 Bft)
04.05.2011 18:30 11,5 C 39 % 1088,3 hPa 0,0 mm W-SW 256 9,7 km/h (2 Bft)
04.05.2011 18:35 11,6 C 40 % 1088,4 hPa 0,0 mm W-SW 256 9,7 km/h (2 Bft)
04.05.2011 18:40 11,6 C 39 % 1088,4 hPa 0,0 mm W 266 11,2 km/h (2 Bft)
04.05.2011 18:45 11,6 C 39 % 1088,3 hPa 0,0 mm W 264 11,2 km/h (2 Bft)
04.05.2011 18:50 11,5 C 39 % 1088,3 hPa 0,0 mm W-SW 253 11,2 km/h (2 Bft)
04.05.2011 18:55 11,2 C 39 % 1088,4 hPa 0,0 mm W-SW 248 11,2 km/h (2 Bft)
04.05.2011 19:00 11,1 C 39 % 1088,7 hPa 0,0 mm W-SW 246 9,7 km/h (2 Bft)
04.05.2011 19:05 11,1 C 39 % 1088,5 hPa 0,0 mm W-SW 256 9,7 km/h (2 Bft)
04.05.2011 19:10 10,9 C 39 % 1088,6 hPa 0,0 mm W 270 3,6 km/h (1 Bft)
04.05.2011 19:15 10,8 C 40 % 1088,8 hPa 0,0 mm W 270 7,2 km/h (2 Bft)
04.05.2011 19:20 10,5 C 39 % 1089,1 hPa 0,0 mm W 270 7,2 km/h (2 Bft)
04.05.2011 19:25 10,2 C 40 % 1089,1 hPa 0,0 mm W 268 8,6 km/h (2 Bft)
04.05.2011 19:30 10,0 C 41 % 1089,2 hPa 0,0 mm W 262 8,6 km/h (2 Bft)
04.05.2011 19:35 9,8 C 41 % 1089,4 hPa 0,0 mm W 262 6,1 km/h (2 Bft)
04.05.2011 19:40 9,4 C 43 % 1089,6 hPa 0,0 mm W 270 5,0 km/h (1 Bft)
04.05.2011 19:45 9,1 C 44 % 1089,6 hPa 0,0 mm W 270 2,5 km/h (1 Bft)
04.05.2011 19:50 8,7 C 45 % 1090,0 hPa 0,0 mm W 270 2,5 km/h (1 Bft)
04.05.2011 19:55 8,3 C 47 % 1090,1 hPa 0,0 mm W 270 2,5 km/h (1 Bft)
04.05.2011 20:00 7,7 C 50 % 1090,2 hPa 0,0 mm W 270 1,1 km/h (1 Bft)
04.05.2011 20:05 7,7 C 50 % 1090,1 hPa 0,0 mm N 0 0,0 km/h (0 Bft)
04.05.2011 20:10 6,4 C 55 % 1090,5 hPa 0,0 mm N 0 0,0 km/h (0 Bft)
04.05.2011 20:15 6,0 C 55 % 1090,7 hPa 0,0 mm N 0 0,0 km/h (0 Bft)
04.05.2011 20:20 5,8 C 57 % 1090,8 hPa 0,0 mm N 0 0,0 km/h (0 Bft)
04.05.2011 20:25 5,7 C 59 % 1090,9 hPa 0,0 mm N 0 0,0 km/h (0 Bft)
04.05.2011 20:30 5,6 C 60 % 1090,8 hPa 0,0 mm W 270 1,1 km/h (1 Bft)
04.05.2011 20:35 5,5 C 60 % 1090,9 hPa 0,0 mm W 270 1,1 km/h (1 Bft)
04.05.2011 20:40 5,4 C 61 % 1091,0 hPa 0,0 mm W 270 1,1 km/h (1 Bft)
04.05.2011 20:45 5,4 C 62 % 1090,9 hPa 0,0 mm W 270 1,1 km/h (1 Bft)
04.05.2011 20:50 5,4 C 62 % 1091,1 hPa 0,0 mm W 270 1,1 km/h (1 Bft)
04.05.2011 20:55 5,3 C 63 % 1091,4 hPa 0,0 mm W 270 1,1 km/h (1 Bft)
04.05.2011 21:00 5,4 C 64 % 1091,3 hPa 0,0 mm N 0 0,0 km/h (0 Bft)
04.05.2011 21:05 5,4 C 64 % 1091,4 hPa 0,0 mm N 0 0,0 km/h (0 Bft)
04.05.2011 21:10 5,4 C 65 % 1091,5 hPa 0,0 mm W 270 1,1 km/h (1 Bft)
04.05.2011 21:15 5,6 C 65 % 1091,5 hPa 0,0 mm W 270 2,5 km/h (1 Bft)
04.05.2011 21:20 5,7 C 65 % 1091,7 hPa 0,0 mm W 270 2,5 km/h (1 Bft)
04.05.2011 21:25 5,7 C 65 % 1091,6 hPa 0,0 mm W 270 2,5 km/h (1 Bft)
04.05.2011 21:30 5,7 C 65 % 1091,7 hPa 0,0 mm W 270 2,5 km/h (1 Bft)
04.05.2011 21:35 5,7 C 66 % 1091,8 hPa 0,0 mm W 270 2,5 km/h (1 Bft)
04.05.2011 21:40 5,7 C 67 % 1091,8 hPa 0,0 mm W 270 1,1 km/h (1 Bft)
04.05.2011 21:45 5,7 C 67 % 1091,8 hPa 0,0 mm W 270 2,5 km/h (1 Bft)
04.05.2011 21:50 5,6 C 67 % 1091,8 hPa 0,0 mm W 270 2,5 km/h (1 Bft)
04.05.2011 21:55 5,7 C 67 % 1091,8 hPa 0,0 mm W 270 3,6 km/h (1 Bft)
04.05.2011 22:00 5,8 C 67 % 1092,1 hPa 0,0 mm W 270 3,6 km/h (1 Bft)
04.05.2011 22:05 5,8 C 67 % 1092,0 hPa 0,0 mm W 270 3,6 km/h (1 Bft)
04.05.2011 22:10 5,5 C 68 % 1092,2 hPa 0,0 mm W 270 2,5 km/h (1 Bft)
04.05.2011 22:15 5,5 C 68 % 1092,3 hPa 0,0 mm W 270 2,5 km/h (1 Bft)
04.05.2011 22:20 5,4 C 68 % 1092,4 hPa 0,0 mm W 270 2,5 km/h (1 Bft)
04.05.2011 22:25 5,1 C 69 % 1092,6 hPa 0,0 mm W 270 1,1 km/h (1 Bft)
04.05.2011 22:30 4,8 C 70 % 1092,6 hPa 0,0 mm W 270 1,1 km/h (1 Bft)
04.05.2011 22:35 4,6 C 71 % 1092,6 hPa 0,0 mm W 270 1,1 km/h (1 Bft)
04.05.2011 22:40 4,4 C 72 % 1092,7 hPa 0,0 mm W 270 1,1 km/h (1 Bft)
04.05.2011 22:45 4,4 C 73 % 1092,8 hPa 0,0 mm W 270 1,1 km/h (1 Bft)
04.05.2011 22:50 4,3 C 73 % 1092,9 hPa 0,0 mm N 0 0,0 km/h (0 Bft)
04.05.2011 22:55 4,3 C 73 % 1092,9 hPa 0,0 mm W 270 2,5 km/h (1 Bft)
04.05.2011 23:00 4,5 C 73 % 1092,9 hPa 0,0 mm W 270 2,5 km/h (1 Bft)
04.05.2011 23:05 4,5 C 73 % 1093,0 hPa 0,0 mm W 270 2,5 km/h (1 Bft)
04.05.2011 23:10 4,6 C 73 % 1093,0 hPa 0,0 mm W 270 1,1 km/h (1 Bft)
04.05.2011 23:11 4,6 C 73 % 1092,9 hPa 0,0 mm W 270 1,1 km/h (1 Bft)
04.05.2011 23:15 4,6 C 74 % 1093,0 hPa 0,0 mm W 270 2,5 km/h (1 Bft)
04.05.2011 23:20 4,6 C 74 % 1093,0 hPa 0,0 mm W 270 2,5 km/h (1 Bft)
04.05.2011 23:25 4,6 C 74 % 1093,0 hPa 0,0 mm W 270 1,1 km/h (1 Bft)
04.05.2011 23:30 4,6 C 74 % 1093,2 hPa 0,0 mm W 270 3,6 km/h (1 Bft)
04.05.2011 23:35 4,7 C 74 % 1093,3 hPa 0,0 mm W 270 3,6 km/h (1 Bft)
04.05.2011 23:40 4,8 C 74 % 1092,9 hPa 0,0 mm W 270 3,6 km/h (1 Bft)
04.05.2011 23:45 4,9 C 74 % 1093,0 hPa 0,0 mm W 270 3,6 km/h (1 Bft)
04.05.2011 23:50 5,0 C 74 % 1093,0 hPa 0,0 mm W 270 3,6 km/h (1 Bft)
04.05.2011 23:55 4,9 C 74 % 1093,1 hPa 0,0 mm W 270 2,5 km/h (1 Bft)
_ Min-Zeit 03:20 17:35 15:45 - - - 00:10
Minimum _ 1,5 C 38 % 1087,3 hPa - - - 0,0 km/h (0 Bft)
_ Max-Zeit 15:40 06:50 23:35 00:00 - - 16:30
Maximum _ 12,4 C 93 % 1093,3 hPa 0,0 mm - - 17,3 km/h
W (3 Bft)
Durchschnitt _ 6,7 C 69 % 1088,8 hPa #0,0 mm W - 5,8 km/h (2 Bft)